Hourly Data Report for May 16, 2021

VINELAND STATION RCS
ONTARIO
Current Station Operator: ECCC - MSC

43°11'00.000" N
79°24'00.000" W
79.20 m
6139148
71171
XVN

Download Data

Hourly Data (May 2021)
Hourly Data Report for May 16, 2021
TIME
LST
Temp Definition
°C
Dew Point Definition
°C
Rel Hum Definition
%
Precip. Amount Definition
mm

Wind Dir Definition
10's deg

Wind Spd Definition
km/h
Visibility Definition
km
Stn Press Definition
kPa
Hmdx Definition


Wind Chill Definition


Weather Definition


00:00 11.3 2.6 55 0.0 17 7   101.28     LegendNANA
01:00 9.0 2.1 62 0.0 18 4   101.28     LegendNANA
02:00 9.0 2.8 65 0.0 11 3   101.25     LegendNANA
03:00 9.5 2.4 61 0.0 18 8   101.27     LegendNANA
04:00 8.3 1.8 63 0.0 14 3   101.28     LegendNANA
05:00 7.4 2.3 70 0.0   0   101.30     LegendNANA
06:00 10.1 4.3 67 0.0 8 2   101.36     LegendNANA
07:00 12.7 5.9 63 0.0 30 2   101.41     LegendNANA
08:00 15.1 4.1 48 0.0 33 4   101.41     LegendNANA
09:00 15.1 5.5 53 0.0 3 5   101.42     LegendNANA
10:00 15.1 3.0 44 0.0 6 6   101.44     LegendNANA
11:00 18.0 0.3 30 0.0 4 6   101.42     LegendNANA
12:00 19.5 3.1 34 0.0 4 6   101.37     LegendNANA
13:00 18.3 5.9 44 0.0 4 7   101.33     LegendNANA
14:00 14.3 7.8 65 0.0 7 16   101.34     LegendNANA
15:00 17.7 2.1 35 0.0 7 12   101.30     LegendNANA
16:00 19.1 1.4 31 0.0 5 12   101.25     LegendNANA
17:00 18.9 2.2 33 0.0 8 7   101.26     LegendNANA
18:00 17.1 2.8 38 0.0 8 10   101.23     LegendNANA
19:00 18.3 4.3 40 0.0 28 2   101.21     LegendNANA
20:00 16.4 4.2 44 0.0 21 7   101.25     LegendNANA
21:00 14.1 4.8 53 0.0 19 5   101.29     LegendNANA
22:00 13.1 4.2 54 0.0 22 8   101.31     LegendNANA
23:00 13.5 3.1 49 0.0 19 11   101.33     LegendNANA

Notes on Data Quality.

Legend

  • E = Estimated
  • M = Missing
  • NA = Not Available*
  • [empty] = Indicates an unobserved value
Date modified: